GPS BIIR-08 1 27663U 03005A 25286.82672370 -.00000019 00000+0 00000+0 0 9999 2 27663 54.9417 224.7596 0144710 50.9805 320.1492 2.00574084166379 GPS BIIR-11 1 28190U 04009A 25285.33929900 -.00000004 00000+0 00000+0 0 9993 2 28190 55.0389 285.6928 0107702 166.3423 11.9350 2.00563037157978 GPS BIIR-13 1 28474U 04045A 25285.00739219 -.00000080 00000+0 00000+0 0 9998 2 28474 55.2690 334.8903 0168740 306.8414 50.6846 2.00566520153448 GPS BIIR-14M 1 28874U 05038A 25286.05391850 -.00000002 00000+0 00000+0 0 9990 2 28874 55.0841 283.1432 0133731 292.0012 62.8941 2.00552127146871 METEOSAT-9 (MSG-2) 1 28912U 05049B 25286.92477889 .00000115 00000+0 00000+0 0 9992 2 28912 8.7986 56.5247 0002857 192.9831 151.8589 1.00274421 4536 GPS BIIR-16M 1 29601U 06052A 25285.62341688 .00000000 00000+0 00000+0 0 9999 2 29601 54.9881 223.8218 0085895 87.0070 273.9754 2.00569604138447 GPS BIIR-17M 1 32260U 07047A 25286.42639810 .00000024 00000+0 00000+0 0 9991 2 32260 53.9128 90.2490 0164739 84.2746 277.6213 2.00566904131867 GPS BIIR-18M 1 32384U 07062A 25286.48715156 -.00000004 00000+0 00000+0 0 9998 2 32384 55.2326 284.0616 0032394 163.8195 9.2466 2.00574310130560 GOES 14 1 35491U 09033A 25286.60871199 -.00000079 00000+0 00000+0 0 9996 2 35491 1.0394 86.1141 0004090 123.9452 283.0530 1.00270854 4126 GOES 15 1 36411U 10008A 25286.92781225 .00000024 00000+0 00000+0 0 9997 2 36411 0.6572 85.5863 0005963 148.7991 183.7758 1.00273566 57162 GSAT0101 (GALILEO-PFM) 1 37846U 11060A 25284.13636910 -.00000089 00000+0 00000+0 0 9992 2 37846 57.0670 348.5203 0001152 289.6926 70.3561 1.70475540 86875 GSAT0102 (GALILEO-FM2) 1 37847U 11060B 25284.65173319 -.00000091 00000+0 00000+0 0 9992 2 37847 57.0679 348.5066 0002879 298.5720 63.1921 1.70475803 86894 LUCH 5A 1 37951U 11074B 25286.77282171 -.00000059 00000+0 00000+0 0 9999 2 37951 8.1242 77.4694 0005250 142.6579 247.5660 1.00269944 50580 METEOSAT-10 (MSG-3) 1 38552U 12035B 25286.70170576 -.00000011 00000+0 00000+0 0 9991 2 38552 4.0846 61.8371 0000977 207.8326 6.1294 1.00279369 48386 SARSAT 13 (METOP-B) 1 38771U 12049A 25286.88826427 .00000175 00000+0 10031-3 0 9990 2 38771 98.6893 337.8334 0001999 5.2512 354.8686 14.21375591678273 GPS BIIF-3 1 38833U 12053A 25283.03391867 .00000036 00000+0 00000+0 0 9990 2 38833 53.5461 153.8485 0173126 62.8416 299.0111 2.00564355 94424 GSAT0103 (GALILEO-FM3) 1 38857U 12055A 25285.34954797 .00000041 00000+0 00000+0 0 9997 2 38857 55.6539 108.3517 0001585 280.0952 79.9294 1.70473424 80781 GPS BIIF-4 1 39166U 13023A 25284.89185034 .00000002 00000+0 00000+0 0 9993 2 39166 54.7045 279.0808 0134413 48.1799 312.9623 2.00565300 90905 INSAT-3D 1 39216U 13038B 25286.86992655 -.00000352 00000+0 00000+0 0 9998 2 39216 1.2859 85.7269 0002033 147.4044 232.2160 1.00267307 44614 GPS BIIF-5 1 39533U 14008A 25286.38433378 -.00000003 00000+0 00000+0 0 9990 2 39533 53.6213 159.3867 0078341 226.1797 133.2486 2.00570865 84733 LUCH 5V 1 39727U 14023A 25286.93439895 -.00000280 00000+0 00000+0 0 9990 2 39727 4.5156 72.0542 0003568 170.6030 211.2516 1.00273199 41892 GPS BIIF-6 1 39741U 14026A 25286.16524345 -.00000089 00000+0 00000+0 0 9996 2 39741 56.6053 341.1338 0036982 316.8223 42.9453 2.00565519 83581 GPS BIIF-7 1 40105U 14045A 25286.25551607 .00000034 00000+0 00000+0 0 9993 2 40105 55.1903 98.3115 0033263 117.9321 242.4344 2.00568797 81122 GSAT0201 (GALILEO 5) 1 40128U 14050A 25285.48309490 -.00000019 00000+0 00000+0 0 9993 2 40128 49.1463 283.5573 1642350 169.9525 193.7928 1.85519439 73728 GSAT0202 (GALILEO 6) 1 40129U 14050B 25286.27856639 -.00000020 00000+0 00000+0 0 9996 2 40129 49.1615 282.6077 1642939 170.7405 192.7173 1.85520122 75901 GPS BIIF-8 1 40294U 14068A 25286.62894737 -.00000064 00000+0 00000+0 0 9996 2 40294 56.8156 40.4702 0061435 69.9018 290.7620 2.00560875 80266 GLONASS-K 2 1 40315U 14075A 25286.00101637 -.00000010 00000+0 00000+0 0 9991 2 40315 63.6143 198.9278 0020796 208.1385 151.7866 2.13101280 84580 GPS BIIF-9 1 40534U 15013A 25286.76031174 -.00000026 00000+0 00000+0 0 9995 2 40534 53.2115 214.3726 0103930 36.9025 323.8165 2.00565790 76882 GSAT0203 (GALILEO 7) 1 40544U 15017A 25285.08781118 -.00000093 00000+0 00000+0 0 9998 2 40544 56.8609 348.3628 0005621 253.9493 106.0473 1.70476117 64977 GSAT0204 (GALILEO 8) 1 40545U 15017B 25285.92970071 -.00000096 00000+0 00000+0 0 9993 2 40545 56.8671 348.3573 0005833 244.5443 115.4520 1.70475558 28034 GPS BIIF-10 1 40730U 15033A 25286.42362197 -.00000001 00000+0 00000+0 0 9993 2 40730 54.1820 277.2531 0107227 25.6100 334.9183 2.00568561 75046 METEOSAT-11 (MSG-4) 1 40732U 15034A 25286.91758553 .00000052 00000+0 00000+0 0 9990 2 40732 2.5823 72.1408 0000969 71.8839 218.8494 1.00261885 4742 GSAT0205 (GALILEO 9) 1 40889U 15045A 25285.69776344 -.00000007 00000+0 00000+0 0 9998 2 40889 55.0277 228.4428 0004399 24.2537 335.7535 1.70472871 62797 GSAT0206 (GALILEO 10) 1 40890U 15045B 25286.50500524 -.00000015 00000+0 00000+0 0 9995 2 40890 55.0265 228.4156 0002502 5.7268 354.2613 1.70472934 62831 GPS BIIF-11 1 41019U 15062A 25286.48230727 -.00000064 00000+0 00000+0 0 9994 2 41019 56.7912 40.3321 0108418 228.4854 130.5870 2.00567180 72883 ELEKTRO-L 2 1 41105U 15074A 25286.90183431 -.00000127 00000+0 00000+0 0 9999 2 41105 6.0714 73.5403 0003147 181.6660 77.6729 1.00272476 36035 GSAT0209 (GALILEO 12) 1 41174U 15079A 25283.15426746 .00000046 00000+0 00000+0 0 9992 2 41174 55.6716 108.1258 0002805 11.7947 348.2611 1.70474044 60516 GSAT0208 (GALILEO 11) 1 41175U 15079B 25284.54753967 .00000041 00000+0 00000+0 0 9990 2 41175 55.6718 108.0848 0002540 23.7011 336.3537 1.70473880 60954 GPS BIIF-12 1 41328U 16007A 25285.06828471 .00000029 00000+0 00000+0 0 9999 2 41328 55.3687 99.3039 0089398 242.5692 116.5476 2.00563887 70864 GSAT0211 (GALILEO 14) 1 41549U 16030A 25286.43073388 -.00000014 00000+0 00000+0 0 9996 2 41549 55.1760 228.4812 0003438 340.2445 19.7275 1.70472911 58462 GSAT0210 (GALILEO 13) 1 41550U 16030B 25286.10173839 -.00000011 00000+0 00000+0 0 9991 2 41550 55.1757 228.4885 0003050 248.2945 111.6591 1.70473393 58459 INSAT-3DR 1 41752U 16054A 25286.90808737 -.00000090 00000+0 00000+0 0 9998 2 41752 0.1247 86.4911 0013293 178.0241 159.0999 1.00271014 33346 GSAT0207 (GALILEO 15) 1 41859U 16069A 25285.20735497 .00000039 00000+0 00000+0 0 9998 2 41859 55.3429 107.9537 0002236 348.5510 11.4858 1.70473979 55170 GSAT0212 (GALILEO 16) 1 41860U 16069B 25284.47451211 .00000040 00000+0 00000+0 0 9999 2 41860 55.3403 107.9694 0003011 40.6045 319.4611 1.70474144 55413 GSAT0213 (GALILEO 17) 1 41861U 16069C 25286.60192762 .00000043 00000+0 00000+0 0 9993 2 41861 55.3456 107.9179 0001554 303.9367 56.0918 1.70474552 55318 GSAT0214 (GALILEO 18) 1 41862U 16069D 25286.16127361 .00000041 00000+0 00000+0 0 9996 2 41862 55.3463 107.9233 0000836 338.5064 21.5325 1.70474248 55432 GOES 16 1 41866U 16071A 25286.89488667 -.00000104 00000+0 00000+0 0 9993 2 41866 0.0758 68.4329 0002822 162.9295 8.8117 1.00271604 32637 GSAT-17 1 42815U 17040B 25286.93413895 -.00000271 00000+0 00000+0 0 9996 2 42815 0.0649 90.0797 0006352 165.5217 196.9472 1.00270514 30311 GSAT0215 (GALILEO 19) 1 43055U 17079A 25285.47775835 -.00000005 00000+0 00000+0 0 9993 2 43055 55.1542 228.3226 0002506 283.6775 76.2813 1.70473655 48767 GSAT0216 (GALILEO 20) 1 43056U 17079B 25285.76908237 -.00000008 00000+0 00000+0 0 9993 2 43056 55.1568 228.3146 0003924 289.3361 70.6081 1.70473799 48782 GSAT0217 (GALILEO 21) 1 43057U 17079C 25281.29706104 .00000006 00000+0 00000+0 0 9994 2 43057 55.1540 228.4354 0003483 302.6499 57.2862 1.70473742 48692 GSAT0218 (GALILEO 22) 1 43058U 17079D 25285.03666338 -.00000001 00000+0 00000+0 0 9991 2 43058 55.1536 228.3305 0004352 284.7405 75.1978 1.70473734 48784 GOES 17 1 43226U 18022A 25286.89792002 -.00000196 00000+0 00000+0 0 9995 2 43226 0.3008 90.6137 0003062 161.4380 4.4179 1.00271399 27950 GSAT0221 (GALILEO 25) 1 43564U 18060A 25286.11264051 -.00000096 00000+0 00000+0 0 9994 2 43564 57.2415 348.4571 0005247 267.4695 92.5271 1.70476067 44953 GSAT0222 (GALILEO 26) 1 43565U 18060B 25286.33188592 -.00000096 00000+0 00000+0 0 9994 2 43565 57.2452 348.4540 0005700 246.0018 113.9948 1.70475764 45006 GSAT0219 (GALILEO 23) 1 43566U 18060C 25285.37993970 -.00000094 00000+0 00000+0 0 9990 2 43566 57.2447 348.4815 0004500 271.0070 88.9996 1.70475932 44964 GSAT0220 (GALILEO 24) 1 43567U 18060D 25285.60083708 -.00000094 00000+0 00000+0 0 9996 2 43567 57.2441 348.4751 0004635 269.8744 90.1301 1.70475672 44955 BEIDOU-3 M13 1 43622U 18072A 25281.70343855 -.00000001 00000+0 00000+0 0 9998 2 43622 56.6124 70.9597 0015990 272.2089 87.6036 1.86276138 47973 BEIDOU-3 M14 1 43623U 18072B 25285.86493596 -.00000001 00000+0 00000+0 0 9998 2 43623 56.4087 70.8286 0002808 12.5114 347.4924 1.86230954 48040 GPS BIII-1 1 43873U 18109A 25285.94964373 .00000035 00000+0 00000+0 0 9997 2 43873 55.5303 101.9463 0035859 194.4361 337.4997 2.00574577 50116 METEOR-M2 2 1 44387U 19038A 25286.95339116 .00000223 00000+0 11635-3 0 9992 2 44387 98.8902 265.9689 0001842 43.6125 316.5199 14.24253208326247 GPS BIII-2 1 44506U 19056A 25286.59338885 -.00000091 00000+0 00000+0 0 9991 2 44506 55.7444 340.9416 0057347 196.9945 334.5065 2.00564270 45120 BEIDOU-3 M24 1 44542U 19061A 25279.26270484 .00000023 00000+0 00000+0 0 9997 2 44542 54.4036 191.2933 0009011 10.1370 349.9168 1.86229365 41067 BEIDOU-3 M23 1 44543U 19061B 25281.30105446 .00000034 00000+0 00000+0 0 9993 2 44543 54.4016 191.1929 0005718 0.3063 199.1630 1.86229353 41101 BEIDOU-3 M22 1 44793U 19078A 25285.01005928 -.00000044 00000+0 00000+0 0 9996 2 44793 54.1626 308.5521 0004636 24.5560 335.5038 1.86231987 40026 BEIDOU-3 M21 1 44794U 19078B 25285.14631057 -.00000044 00000+0 00000+0 0 9999 2 44794 54.1360 308.5135 0002869 8.9630 351.0796 1.86227647 40036 ELEKTRO-L 3 1 44903U 19095A 25286.93075892 .00000000 00000+0 00000+0 0 9998 2 44903 0.0148 343.7908 0002075 272.2507 177.8037 1.00270203 21234 GPS BIII-3 1 45854U 20041A 25285.67470615 -.00000065 00000+0 00000+0 0 9991 2 45854 56.5056 38.5632 0058728 201.0154 331.9441 2.00563060 39071 COSMOS 2547 1 46805U 20075A 25280.01151130 .00000025 00000+0 00000+0 0 9991 2 46805 64.5970 200.9234 0007647 236.6415 123.3077 2.13099754 38517 GPS BIII-4 1 46826U 20078A 25280.70667676 .00000014 00000+0 00000+0 0 9998 2 46826 54.0337 221.0200 0063174 203.5436 311.5362 2.00566956 36448 GSAT0223 (GALILEO 27) 1 49809U 21116A 25286.60347213 -.00000097 00000+0 00000+0 0 9995 2 49809 57.2333 348.3390 0004476 226.9636 119.0921 1.70475970 23974 GSAT0224 (GALILEO 28) 1 49810U 21116B 25278.18484427 -.00000072 00000+0 00000+0 0 9993 2 49810 57.2367 348.5668 0003507 220.6967 111.2402 1.70476119 23856 GOES 18 1 51850U 22021A 25286.74581932 .00000083 00000+0 00000+0 0 9997 2 51850 0.0445 45.2154 0000776 219.3738 249.4773 1.00269904 4122 COSMOS 2557 (706K) 1 52984U 22075A 25283.46226985 -.00000038 00000+0 00000+0 0 9996 2 52984 64.4431 323.2776 0013440 272.1169 87.7939 2.13101948 25393 METEOR-M2 3 1 57166U 23091A 25286.96751454 .00000007 00000+0 21989-4 0 9993 2 57166 98.6468 341.5227 0004451 152.4131 207.7285 14.24015292119476 COSMOS 2569 (703K) 1 57517U 23114A 25283.13950902 .00000029 00000+0 00000+0 0 9994 2 57517 65.1597 81.0618 0008645 290.1532 69.7585 2.13103755 16935 METEOR-M2 4 1 59051U 24039A 25286.98331104 .00000068 00000+0 50073-4 0 9992 2 59051 98.6662 244.8592 0007368 154.1097 206.0451 14.22387201 84262 GSAT0225 (GALILEO 29) 1 59598U 24079A 25285.57243344 .00000039 00000+0 00000+0 0 9992 2 59598 54.9624 108.0049 0001965 145.4248 32.7194 1.70474174 9098 GSAT0227 (GALILEO 30) 1 59600U 24079C 25284.87908336 .00000038 00000+0 00000+0 0 9996 2 59600 54.9565 108.0239 0004003 105.2659 254.8209 1.70474327 9132 GSAT0232 (GALILEO 32) 1 61182U 24167A 25286.54009418 -.00000015 00000+0 00000+0 0 9997 2 61182 55.2645 228.0811 0003854 232.6806 261.6362 1.70473213 6679 GSAT0226 (GALILEO 31) 1 61183U 24167B 25286.11246465 -.00000011 00000+0 00000+0 0 9992 2 61183 55.2635 228.0983 0001593 229.7741 114.7326 1.70473280 6630